�������r�C�����j�^�v���󋵏��
Date,Time,5�C6���@���p�r�C��,����,����(m/s)
2021/12/23,00:00,4.1,�쐼,2.5
2021/12/23,00:10,4.1,�쐼,2.0
2021/12/23,00:20,4.1,���쐼,2.3
2021/12/23,00:30,4.0,���쐼,2.8
2021/12/23,00:40,3.9,���쐼,3.1
2021/12/23,00:50,3.8,��,2.6
2021/12/23,01:00,4.0,��,2.5
2021/12/23,01:10,4.1,��,2.8
2021/12/23,01:20,3.9,���쐼,2.6
2021/12/23,01:30,4.1,���쐼,1.9
2021/12/23,01:40,4.0,��,0.6
2021/12/23,01:50,4.0,��,1.9
2021/12/23,02:00,3.9,���k��,1.5
2021/12/23,02:10,4.0,��,0.9
2021/12/23,02:20,4.0,��,1.1
2021/12/23,02:30,4.1,�쓌,0.9
2021/12/23,02:40,4.0,��쐼,1.2
2021/12/23,02:50,4.0,��,0.9
2021/12/23,03:00,3.8,��,0.8
2021/12/23,03:10,4.0,�k��,0.9
2021/12/23,03:20,3.8,�k��,0.9
2021/12/23,03:30,4.2,-,CALM
2021/12/23,03:40,4.0,-,CALM
2021/12/23,03:50,4.2,��,0.6
2021/12/23,04:00,4.1,-,CALM
2021/12/23,04:10,3.8,-,CALM
2021/12/23,04:20,3.9,-,CALM
2021/12/23,04:30,4.0,�쓌,0.6
2021/12/23,04:40,4.0,-,CALM
2021/12/23,04:50,4.0,-,CALM
2021/12/23,05:00,4.0,-,CALM
2021/12/23,05:10,4.0,-,CALM
2021/12/23,05:20,4.1,�쓌,0.9
2021/12/23,05:30,4.1,���쓌,0.9
2021/12/23,05:40,4.0,��쓌,0.8
2021/12/23,05:50,4.0,��,0.8
2021/12/23,06:00,4.0,��쐼,0.8
2021/12/23,06:10,4.0,�쐼,1.2
2021/12/23,06:20,4.1,��,1.4
2021/12/23,06:30,4.1,��쐼,1.1
2021/12/23,06:40,4.0,-,CALM
2021/12/23,06:50,4.1,-,CALM
2021/12/23,07:00,4.0,-,CALM
2021/12/23,07:10,3.8,-,CALM
2021/12/23,07:20,4.1,���쐼,1.2
2021/12/23,07:30,3.9,��,1.2
2021/12/23,07:40,3.9,���쐼,1.5
2021/12/23,07:50,3.9,���쐼,1.5
2021/12/23,08:00,4.1,�쐼,2.0
2021/12/23,08:10,4.0,��쐼,1.5
2021/12/23,08:20,4.0,��쐼,1.7
2021/12/23,08:30,4.2,��쐼,2.0
2021/12/23,08:40,3.8,��,1.5
2021/12/23,08:50,4.0,��쐼,1.7
2021/12/23,09:00,3.9,��,2.0
2021/12/23,09:10,4.1,��쓌,1.7
2021/12/23,09:20,3.9,��쓌,1.2
2021/12/23,09:30,4.0,���쓌,1.7
2021/12/23,09:40,4.1,��,1.7
2021/12/23,09:50,4.0,��쓌,1.9
2021/12/23,10:00,4.1,���쓌,2.5
2021/12/23,10:10,3.9,���쓌,2.3
2021/12/23,10:20,4.0,���쓌,1.7
2021/12/23,10:30,4.0,���쓌,1.7
2021/12/23,10:40,4.0,���쓌,2.5
2021/12/23,10:50,4.1,��,2.3
2021/12/23,11:00,4.2,���k��,2.3
2021/12/23,11:10,4.0,���쓌,2.2
2021/12/23,11:20,4.0,�쓌,2.6
2021/12/23,11:30,4.0,��쓌,2.5
2021/12/23,11:40,3.8,���쓌,2.8
2021/12/23,11:50,3.9,���쓌,2.3
2021/12/23,12:00,4.2,�쓌,3.0
2021/12/23,12:10,4.2,���쓌,3.0
2021/12/23,12:20,4.2,���쓌,1.9
2021/12/23,12:30,4.0,�쓌,4.0
2021/12/23,12:40,3.9,���쓌,3.4
2021/12/23,12:50,3.9,���쓌,3.8
2021/12/23,13:00,4.0,���쓌,3.1
2021/12/23,13:10,4.0,�쓌,3.3
2021/12/23,13:20,3.9,�쓌,3.1
2021/12/23,13:30,4.0,�쓌,2.9
2021/12/23,13:40,4.1,�쓌,3.3
2021/12/23,13:50,4.0,��쓌,4.2
2021/12/23,14:00,4.1,��쓌,3.2
2021/12/23,14:10,4.1,��쓌,2.8
2021/12/23,14:20,4.0,��,3.4
2021/12/23,14:30,4.0,��,3.3
2021/12/23,14:40,4.1,��쓌,3.7
2021/12/23,14:50,4.0,��쓌,2.6
2021/12/23,15:00,4.0,��쓌,2.8
2021/12/23,15:10,4.0,��쓌,2.8
2021/12/23,15:20,4.0,��쓌,3.4
2021/12/23,15:30,4.1,��쐼,2.3
2021/12/23,15:40,3.8,�쐼,3.3
2021/12/23,15:50,3.8,��,3.9
2021/12/23,16:00,4.1,��,2.6
2021/12/23,16:10,4.1,��,3.5
2021/12/23,16:20,4.0,���쐼,3.2
2021/12/23,16:30,4.1,��,5.0
2021/12/23,16:40,4.0,��,5.6
2021/12/23,16:50,4.0,���쐼,5.3
2021/12/23,17:00,3.9,���쐼,4.9
2021/12/23,17:10,4.3,���쐼,4.9
2021/12/23,17:20,4.0,��,6.2
2021/12/23,17:30,3.8,��,6.6
2021/12/23,17:40,3.9,��,7.1
2021/12/23,17:50,4.1,��,7.2
2021/12/23,18:00,4.1,��,7.2
2021/12/23,18:10,4.1,��,5.8
2021/12/23,18:20,3.9,��,6.5
2021/12/23,18:30,4.0,��,6.3
2021/12/23,18:40,4.0,��,7.0
2021/12/23,18:50,4.0,��,7.6
2021/12/23,19:00,4.0,��,6.9
2021/12/23,19:10,4.0,��,5.6
2021/12/23,19:20,4.1,���k��,5.2
2021/12/23,19:30,4.1,���k��,6.5
2021/12/23,19:40,3.8,��,6.8
2021/12/23,19:50,4.0,���k��,6.9
2021/12/23,20:00,3.9,���k��,7.1
2021/12/23,20:10,3.9,��,7.7
2021/12/23,20:20,4.0,���k��,7.2
2021/12/23,20:30,4.1,���k��,6.9
2021/12/23,20:40,4.1,���k��,7.8
2021/12/23,20:50,4.1,���k��,6.5
2021/12/23,21:00,4.0,���k��,7.0
2021/12/23,21:10,4.1,���k��,6.0
2021/12/23,21:20,4.0,�k��,4.3
2021/12/23,21:30,4.1,�k��,3.6
2021/12/23,21:40,4.0,���k��,4.4
2021/12/23,21:50,4.0,�k��,2.3
2021/12/23,22:00,3.8,�k��,2.3
2021/12/23,22:10,3.8,���k��,1.4
2021/12/23,22:20,4.1,�k��,2.2
2021/12/23,22:30,4.0,�k�k��,4.0
2021/12/23,22:40,3.9,�k�k��,3.5
2021/12/23,22:50,4.0,�k�k��,3.0
2021/12/23,23:00,4.0,�k�k��,4.4
2021/12/23,23:10,3.9,�k�k��,4.6
2021/12/23,23:20,4.1,�k�k��,4.3
2021/12/23,23:30,3.8,�k��,5.4
2021/12/23,23:40,4.1,�k��,4.7
2021/12/23,23:50,4.1,�k�k��,4.7
